Weather in Abay

Russia / Altai Republic     50°25′59″N   85°03′19″E
temp.,
°C
wind,
m/s
gust,
m/s
humid.,
%
clouds,
%
prec.,
mm/h
press.,
hPa
HPBL,
m
14 june, mon
mon1401:00+2nne229322 0.3 102115
04:00+1nne119471 0.0 102010
07:00+4ssw008692 0.0 1020131
10:00+10nnw125831 0.0 1017985
13:00+12nnw2356100 0.1 10161563
16:00+12nnw446755 0.3 1016991
19:00+12n346837 0.4 10161051
22:00+6n329447 0.0 101940
15 june, tue
tue1501:00+4n229743 0.0 102027
04:00+4n229674 0.0 101988
07:00+6n228861 0.0 1019280
10:00+11n236521 0.0 10171018
13:00+15n35485 0.0 10151711
16:00+17n45455 0.0 10141801
19:00+15n46562 0.0 10151052
22:00+8n22845 0.0 101718
16 june, wed
wed1601:00+5nne22911 0.0 101821
04:00+4ne11920 0.0 101910
07:00+7se01840 0.0 101891
10:00+14nnw11600 0.0 1016616
13:00+19nnw12453 0.0 10141336
16:00+20nnw32459 0.0 10131722
19:00+18n23553 0.0 1012640
22:00+11nne22742 0.0 101413
17 june, thu
thu1701:00+8nne11890 0.0 101613
04:00+7ne01900 0.0 101510
07:00+10s11840 0.0 101581
10:00+17sw10620 0.0 1013466
13:00+21wsw12410 0.0 10101530
16:00+22nw12354 0.0 10091654
19:00+18sw236013 0.0 1010299
22:00+12n11822 0.1 101110
18 june, fri
fri1801:00+10nne11880 0.1 101210
04:00+8sse11910 0.0 101110
07:00+11se01870 0.0 101173
10:00+18wsw11635 0.0 1008503
13:00+22wsw1238100 0.0 10061677
16:00+22w223650 0.0 10051719
19:00+22wsw1250100 0.0 10041001
22:00+13ne2184100 0.1 100714